Year,Month,Day,Hour,Minute,Value (Times are PST for windgust in km/hr)
2021,11,15,00,00,11.30
2021,11,15,00,01,8.10
2021,11,15,00,02,8.10
2021,11,15,00,03,8.10
2021,11,15,00,04,8.10
2021,11,15,00,05,11.30
2021,11,15,00,06,14.50
2021,11,15,00,07,14.50
2021,11,15,00,08,16.10
2021,11,15,00,09,11.30
2021,11,15,00,10,11.30
2021,11,15,00,11,9.60
2021,11,15,00,12,9.60
2021,11,15,00,13,9.60
2021,11,15,00,14,9.60
2021,11,15,00,15,9.60
2021,11,15,00,16,11.30
2021,11,15,00,17,11.30
2021,11,15,00,18,11.30
2021,11,15,00,19,9.60
2021,11,15,00,20,11.30
2021,11,15,00,21,9.60
2021,11,15,00,22,8.10
2021,11,15,00,23,8.10
2021,11,15,00,24,8.10
2021,11,15,00,25,8.10
2021,11,15,00,26,8.10
2021,11,15,00,27,9.60
2021,11,15,00,28,9.60
2021,11,15,00,29,9.60
2021,11,15,00,30,8.10
2021,11,15,00,31,8.10
2021,11,15,00,32,9.60
2021,11,15,00,33,9.60
2021,11,15,00,34,9.60
2021,11,15,00,35,9.60
2021,11,15,00,36,8.10
2021,11,15,00,37,8.10
2021,11,15,00,38,8.10
2021,11,15,00,39,8.10
2021,11,15,00,40,9.60
2021,11,15,00,41,11.30
2021,11,15,00,42,14.50
2021,11,15,00,43,14.50
2021,11,15,00,44,9.60
2021,11,15,00,45,11.30
2021,11,15,00,46,9.60
2021,11,15,00,47,8.10
2021,11,15,00,48,8.10
2021,11,15,00,49,8.10
2021,11,15,00,50,8.10
2021,11,15,00,51,9.60
2021,11,15,00,52,9.60
2021,11,15,00,53,8.10
2021,11,15,00,54,9.60
2021,11,15,00,55,8.10
2021,11,15,00,56,9.60
2021,11,15,00,57,8.10
2021,11,15,00,58,8.10
2021,11,15,00,59,8.10
2021,11,15,01,00,9.60
2021,11,15,01,01,8.10
2021,11,15,01,02,8.10
2021,11,15,01,03,8.10
2021,11,15,01,04,8.10
2021,11,15,01,05,6.40
2021,11,15,01,06,6.40
2021,11,15,01,07,6.40
2021,11,15,01,08,6.40
2021,11,15,01,09,6.40
2021,11,15,01,10,8.10
2021,11,15,01,11,8.10
2021,11,15,01,12,8.10
2021,11,15,01,13,8.10
2021,11,15,01,14,8.10
2021,11,15,01,15,6.40
2021,11,15,01,16,6.40
2021,11,15,01,17,8.10
2021,11,15,01,18,8.10
2021,11,15,01,19,6.40
2021,11,15,01,20,8.10
2021,11,15,01,21,6.40
2021,11,15,01,22,8.10
2021,11,15,01,23,4.80
2021,11,15,01,24,6.40
2021,11,15,01,25,6.40
2021,11,15,01,26,6.40
2021,11,15,01,27,4.80
2021,11,15,01,28,6.40
2021,11,15,01,29,6.40
2021,11,15,01,30,6.40
2021,11,15,01,31,6.40
2021,11,15,01,32,6.40
2021,11,15,01,33,8.10
2021,11,15,01,34,9.60
2021,11,15,01,35,8.10
2021,11,15,01,36,8.10
2021,11,15,01,37,6.40
2021,11,15,01,38,6.40
2021,11,15,01,39,8.10
2021,11,15,01,40,8.10
2021,11,15,01,41,6.40
2021,11,15,01,42,8.10
2021,11,15,01,43,11.30
2021,11,15,01,44,11.30
2021,11,15,01,45,11.30
2021,11,15,01,46,6.40
2021,11,15,01,47,11.30
2021,11,15,01,48,12.90
2021,11,15,01,49,12.90
2021,11,15,01,50,12.90
2021,11,15,01,51,12.90
2021,11,15,01,52,9.60
2021,11,15,01,53,8.10
2021,11,15,01,54,8.10
2021,11,15,01,55,8.10
2021,11,15,01,56,9.60
2021,11,15,01,57,8.10
2021,11,15,01,58,9.60
2021,11,15,01,59,9.60
2021,11,15,02,00,9.60
2021,11,15,02,01,9.60
2021,11,15,02,02,9.60
2021,11,15,02,03,12.90
2021,11,15,02,04,12.90
2021,11,15,02,05,14.50
2021,11,15,02,06,14.50
2021,11,15,02,07,14.50
2021,11,15,02,08,14.50
2021,11,15,02,09,12.90
2021,11,15,02,10,12.90
2021,11,15,02,11,12.90
2021,11,15,02,12,12.90
2021,11,15,02,13,11.30
2021,11,15,02,14,11.30
2021,11,15,02,15,8.10
2021,11,15,02,16,6.40
2021,11,15,02,17,6.40
2021,11,15,02,18,6.40
2021,11,15,02,19,6.40
2021,11,15,02,20,4.80
2021,11,15,02,21,6.40
2021,11,15,02,22,6.40
2021,11,15,02,23,6.40
2021,11,15,02,24,6.40
2021,11,15,02,25,8.10
2021,11,15,02,26,8.10
2021,11,15,02,27,8.10
2021,11,15,02,28,6.40
2021,11,15,02,29,4.80
2021,11,15,02,30,6.40
2021,11,15,02,31,6.40
2021,11,15,02,32,6.40
2021,11,15,02,33,6.40
2021,11,15,02,34,4.80
2021,11,15,02,35,4.80
2021,11,15,02,36,6.40
2021,11,15,02,37,4.80
2021,11,15,02,38,6.40
2021,11,15,02,39,4.80
2021,11,15,02,40,6.40
2021,11,15,02,41,4.80
2021,11,15,02,42,4.80
2021,11,15,02,43,4.80
2021,11,15,02,44,4.80
2021,11,15,02,45,4.80
2021,11,15,02,46,4.80
2021,11,15,02,47,4.80
2021,11,15,02,48,4.80
2021,11,15,02,49,4.80
2021,11,15,02,50,4.80
2021,11,15,02,51,4.80
2021,11,15,02,52,4.80
2021,11,15,02,53,4.80
2021,11,15,02,54,4.80
2021,11,15,02,55,4.80
2021,11,15,02,56,4.80
2021,11,15,02,57,4.80
2021,11,15,02,58,4.80
2021,11,15,02,59,4.80
2021,11,15,03,00,4.80
2021,11,15,03,01,3.20
2021,11,15,03,02,3.20
2021,11,15,03,03,3.20
2021,11,15,03,04,3.20
2021,11,15,03,05,3.20
2021,11,15,03,06,1.60
2021,11,15,03,09,1.60
2021,11,15,03,10,3.20
2021,11,15,03,11,4.80
2021,11,15,03,12,4.80
2021,11,15,03,13,3.20
2021,11,15,03,14,3.20
2021,11,15,03,15,4.80
2021,11,15,03,16,4.80
2021,11,15,03,17,4.80
2021,11,15,03,18,4.80
2021,11,15,03,19,6.40
2021,11,15,03,20,6.40
2021,11,15,03,21,6.40
2021,11,15,03,22,6.40
2021,11,15,03,23,6.40
2021,11,15,03,24,4.80
2021,11,15,03,25,6.40
2021,11,15,03,26,4.80
2021,11,15,03,27,4.80
2021,11,15,03,28,4.80
2021,11,15,03,29,3.20
2021,11,15,03,30,3.20
2021,11,15,03,40,6.40
2021,11,15,03,41,6.40
2021,11,15,03,42,6.40
2021,11,15,03,43,4.80
2021,11,15,03,44,6.40
2021,11,15,03,45,8.10
2021,11,15,03,46,6.40
2021,11,15,03,47,4.80
2021,11,15,03,48,8.10
2021,11,15,03,49,6.40
2021,11,15,03,50,6.40
2021,11,15,03,51,6.40
2021,11,15,03,52,6.40
2021,11,15,03,53,6.40
2021,11,15,03,54,6.40
2021,11,15,03,55,4.80
2021,11,15,03,56,3.20
2021,11,15,03,57,3.20
2021,11,15,03,58,3.20
2021,11,15,03,59,4.80
2021,11,15,04,00,4.80
2021,11,15,04,01,6.40
2021,11,15,04,02,6.40
2021,11,15,04,03,4.80
2021,11,15,04,04,4.80
2021,11,15,04,05,4.80
2021,11,15,04,27,4.80
2021,11,15,04,28,6.40
2021,11,15,04,29,6.40
2021,11,15,04,30,9.60
2021,11,15,04,31,6.40
2021,11,15,04,32,4.80
2021,11,15,04,33,4.80
2021,11,15,04,34,6.40
2021,11,15,04,35,4.80
2021,11,15,04,36,6.40
2021,11,15,04,37,8.10
2021,11,15,04,38,8.10
2021,11,15,04,39,6.40
2021,11,15,04,40,6.40
2021,11,15,04,41,4.80
2021,11,15,04,42,4.80
2021,11,15,04,43,4.80
2021,11,15,04,44,4.80
2021,11,15,04,45,4.80
2021,11,15,04,46,3.20
2021,11,15,04,47,4.80
2021,11,15,04,48,6.40
2021,11,15,04,49,4.80
2021,11,15,04,50,4.80
2021,11,15,04,51,4.80
2021,11,15,04,53,1.60
2021,11,15,04,55,9.60
2021,11,15,04,56,6.40
2021,11,15,04,57,3.20
2021,11,15,04,58,3.20
2021,11,15,04,59,6.40
2021,11,15,05,00,6.40
2021,11,15,05,01,8.10
2021,11,15,05,02,6.40
2021,11,15,05,03,9.60
2021,11,15,05,04,14.50
2021,11,15,05,05,12.90
2021,11,15,05,06,9.60
2021,11,15,05,07,11.30
2021,11,15,05,08,8.10
2021,11,15,05,09,8.10
2021,11,15,05,10,4.80
2021,11,15,05,11,4.80
2021,11,15,05,12,6.40
2021,11,15,05,13,6.40
2021,11,15,05,14,8.10
2021,11,15,05,15,8.10
2021,11,15,05,16,6.40
2021,11,15,05,17,8.10
2021,11,15,05,18,11.30
2021,11,15,05,19,11.30
2021,11,15,05,20,8.10
2021,11,15,05,21,8.10
2021,11,15,05,22,8.10
2021,11,15,05,23,8.10
2021,11,15,05,24,8.10
2021,11,15,05,25,9.60
2021,11,15,05,26,9.60
2021,11,15,05,27,8.10
2021,11,15,05,28,8.10
2021,11,15,05,29,9.60
2021,11,15,05,30,12.90
2021,11,15,05,31,12.90
2021,11,15,05,32,9.60
2021,11,15,05,33,14.50
2021,11,15,05,34,12.90
2021,11,15,05,35,14.50
2021,11,15,05,36,14.50
2021,11,15,05,37,9.60
2021,11,15,05,38,6.40
2021,11,15,05,39,9.60
2021,11,15,05,40,9.60
2021,11,15,05,41,9.60
2021,11,15,05,42,8.10
2021,11,15,05,43,9.60
2021,11,15,05,44,9.60
2021,11,15,05,45,8.10
2021,11,15,05,46,8.10
2021,11,15,05,47,8.10
2021,11,15,05,48,8.10
2021,11,15,05,49,6.40
2021,11,15,05,50,11.30
2021,11,15,05,51,11.30
2021,11,15,05,52,8.10
2021,11,15,05,53,8.10
2021,11,15,05,54,8.10
2021,11,15,05,55,8.10
2021,11,15,05,56,9.60
2021,11,15,05,57,12.90
2021,11,15,05,58,12.90
2021,11,15,05,59,12.90
2021,11,15,06,00,14.50
2021,11,15,06,01,14.50
2021,11,15,06,02,12.90
2021,11,15,06,03,8.10
2021,11,15,06,04,8.10
2021,11,15,06,05,11.30
2021,11,15,06,06,14.50
2021,11,15,06,07,14.50
2021,11,15,06,08,12.90
2021,11,15,06,09,9.60
2021,11,15,06,10,9.60
2021,11,15,06,11,12.90
2021,11,15,06,12,14.50
2021,11,15,06,13,14.50
2021,11,15,06,14,16.10
2021,11,15,06,15,14.50
2021,11,15,06,16,14.50
2021,11,15,06,17,11.30
2021,11,15,06,18,12.90
2021,11,15,06,19,16.10
2021,11,15,06,20,14.50
2021,11,15,06,21,12.90
2021,11,15,06,22,14.50
2021,11,15,06,23,16.10
2021,11,15,06,24,14.50
2021,11,15,06,25,14.50
2021,11,15,06,26,11.30
2021,11,15,06,27,11.30
2021,11,15,06,28,11.30
2021,11,15,06,29,11.30
2021,11,15,06,30,11.30
2021,11,15,06,31,11.30
2021,11,15,06,32,12.90
2021,11,15,06,33,12.90
2021,11,15,06,34,11.30
2021,11,15,06,35,12.90
2021,11,15,06,36,9.60
2021,11,15,06,37,9.60
2021,11,15,06,38,11.30
2021,11,15,06,39,16.10
2021,11,15,06,40,16.10
2021,11,15,06,41,16.10
2021,11,15,06,42,14.50
2021,11,15,06,43,12.90
2021,11,15,06,44,9.60
2021,11,15,06,45,11.30
2021,11,15,06,46,12.90
2021,11,15,06,47,9.60
2021,11,15,06,48,9.60
2021,11,15,06,49,8.10
2021,11,15,06,50,9.60
2021,11,15,06,51,9.60
2021,11,15,06,52,8.10
2021,11,15,06,53,8.10
2021,11,15,06,54,8.10
2021,11,15,06,55,8.10
2021,11,15,06,56,11.30
2021,11,15,06,57,12.90
2021,11,15,06,58,12.90
2021,11,15,06,59,14.50
2021,11,15,07,00,12.90
2021,11,15,07,01,14.50
2021,11,15,07,02,16.10
2021,11,15,07,03,16.10
2021,11,15,07,04,16.10
2021,11,15,07,05,17.70
2021,11,15,07,06,16.10
2021,11,15,07,07,16.10
2021,11,15,07,08,12.90
2021,11,15,07,09,9.60
2021,11,15,07,10,8.10
2021,11,15,07,11,8.10
2021,11,15,07,12,6.40
2021,11,15,07,13,6.40
2021,11,15,07,14,8.10
2021,11,15,07,15,8.10
2021,11,15,07,16,8.10
2021,11,15,07,17,6.40
2021,11,15,07,18,6.40
2021,11,15,07,19,8.10
2021,11,15,07,20,8.10
2021,11,15,07,21,9.60
2021,11,15,07,22,11.30
2021,11,15,07,23,11.30
2021,11,15,07,24,11.30
2021,11,15,07,25,11.30
2021,11,15,07,26,8.10
2021,11,15,07,27,8.10
2021,11,15,07,28,8.10
2021,11,15,07,29,11.30
2021,11,15,07,30,11.30
2021,11,15,07,31,11.30
2021,11,15,07,32,12.90
2021,11,15,07,33,9.60
2021,11,15,07,34,9.60
2021,11,15,07,35,9.60
2021,11,15,07,36,9.60
2021,11,15,07,37,11.30
2021,11,15,07,38,11.30
2021,11,15,07,39,12.90
2021,11,15,07,40,8.10
2021,11,15,07,41,6.40
2021,11,15,07,42,6.40
2021,11,15,07,43,4.80
2021,11,15,07,44,4.80
2021,11,15,07,45,6.40
2021,11,15,07,46,6.40
2021,11,15,07,47,4.80
2021,11,15,07,48,4.80
2021,11,15,07,49,4.80
2021,11,15,07,50,6.40
2021,11,15,07,51,8.10
2021,11,15,07,52,8.10
2021,11,15,07,53,8.10
2021,11,15,07,54,6.40
2021,11,15,07,55,8.10
2021,11,15,07,56,8.10
2021,11,15,07,57,6.40
2021,11,15,07,58,6.40
2021,11,15,07,59,6.40
2021,11,15,08,00,6.40
2021,11,15,08,01,6.40
2021,11,15,08,02,6.40
2021,11,15,08,03,8.10
2021,11,15,08,04,8.10
2021,11,15,08,05,8.10
2021,11,15,08,06,6.40
2021,11,15,08,07,4.80
2021,11,15,08,08,6.40
2021,11,15,08,09,6.40
2021,11,15,08,10,8.10
2021,11,15,08,11,6.40
2021,11,15,08,12,4.80
2021,11,15,08,13,4.80
2021,11,15,08,14,6.40
2021,11,15,08,15,6.40
2021,11,15,08,16,6.40
2021,11,15,08,17,4.80
2021,11,15,08,18,4.80
2021,11,15,08,19,3.20
2021,11,15,08,20,4.80
2021,11,15,08,21,4.80
2021,11,15,08,22,3.20
2021,11,15,08,23,3.20
2021,11,15,08,24,3.20
2021,11,15,08,25,4.80
2021,11,15,08,26,4.80
2021,11,15,08,27,4.80
2021,11,15,08,28,4.80
2021,11,15,08,29,4.80
2021,11,15,08,30,4.80
2021,11,15,08,31,4.80
2021,11,15,08,32,4.80
2021,11,15,08,33,3.20
2021,11,15,08,34,4.80
2021,11,15,08,35,4.80
2021,11,15,08,36,4.80
2021,11,15,08,37,3.20
2021,11,15,08,38,3.20
2021,11,15,08,39,3.20
2021,11,15,08,40,4.80
2021,11,15,08,41,6.40
2021,11,15,08,42,4.80
2021,11,15,08,43,8.10
2021,11,15,08,44,6.40
2021,11,15,08,45,9.60
2021,11,15,08,46,8.10
2021,11,15,08,47,8.10
2021,11,15,08,48,6.40
2021,11,15,08,49,4.80
2021,11,15,08,50,4.80
2021,11,15,08,51,4.80
2021,11,15,08,52,6.40
2021,11,15,08,53,6.40
2021,11,15,08,54,6.40
2021,11,15,08,55,8.10
2021,11,15,08,56,8.10
2021,11,15,08,57,8.10
2021,11,15,08,58,8.10
2021,11,15,08,59,8.10
2021,11,15,09,00,6.40
2021,11,15,09,01,8.10
2021,11,15,09,02,8.10
2021,11,15,09,03,6.40
2021,11,15,09,04,4.80
2021,11,15,09,05,6.40
2021,11,15,09,06,6.40
2021,11,15,09,07,6.40
2021,11,15,09,08,4.80
2021,11,15,09,09,6.40
2021,11,15,09,10,6.40
2021,11,15,09,11,11.30
2021,11,15,09,12,11.30
2021,11,15,09,13,9.60
2021,11,15,09,14,12.90
2021,11,15,09,15,11.30
2021,11,15,09,16,11.30
2021,11,15,09,17,6.40
2021,11,15,09,18,6.40
2021,11,15,09,19,9.60
2021,11,15,09,20,4.80
2021,11,15,09,21,6.40
2021,11,15,09,22,6.40
2021,11,15,09,23,6.40
2021,11,15,09,24,4.80
2021,11,15,09,25,9.60
2021,11,15,09,26,6.40
2021,11,15,09,27,4.80
2021,11,15,09,28,3.20
2021,11,15,09,29,4.80
2021,11,15,09,30,4.80
2021,11,15,09,31,4.80
2021,11,15,09,32,4.80
2021,11,15,09,38,11.30
2021,11,15,09,39,9.60
2021,11,15,09,40,11.30
2021,11,15,09,41,6.40
2021,11,15,09,42,4.80
2021,11,15,09,43,3.20
2021,11,15,09,44,1.60
2021,11,15,09,47,1.60
2021,11,15,09,48,3.20
2021,11,15,09,49,4.80
2021,11,15,09,50,6.40
2021,11,15,09,51,4.80
2021,11,15,09,52,4.80
2021,11,15,09,53,3.20
2021,11,15,09,54,1.60
2021,11,15,09,55,3.20
2021,11,15,09,56,3.20
2021,11,15,09,57,4.80
2021,11,15,09,58,6.40
2021,11,15,09,59,6.40
2021,11,15,10,00,3.20
2021,11,15,10,01,1.60
2021,11,15,10,02,4.80
2021,11,15,10,03,6.40
2021,11,15,10,04,6.40
2021,11,15,10,05,9.60
2021,11,15,10,06,11.30
2021,11,15,10,07,6.40
2021,11,15,10,08,14.50
2021,11,15,10,09,16.10
2021,11,15,10,10,17.70
2021,11,15,10,11,16.10
2021,11,15,10,12,16.10
2021,11,15,10,13,16.10
2021,11,15,10,14,17.70
2021,11,15,10,15,14.50
2021,11,15,10,16,41.80
2021,11,15,10,17,46.70
2021,11,15,10,18,49.90
2021,11,15,10,19,40.20
2021,11,15,10,20,57.90
2021,11,15,10,21,46.70
2021,11,15,10,22,56.30
2021,11,15,10,23,59.50
2021,11,15,10,24,59.50
2021,11,15,10,25,59.50
2021,11,15,10,26,56.30
2021,11,15,10,27,54.70
2021,11,15,10,28,57.90
2021,11,15,10,29,51.50
2021,11,15,10,30,51.50
2021,11,15,10,31,53.10
2021,11,15,10,32,56.30
2021,11,15,10,33,57.90
2021,11,15,10,34,67.60
2021,11,15,10,35,67.60
2021,11,15,10,36,64.40
2021,11,15,10,37,56.30
2021,11,15,10,38,66.00
2021,11,15,10,39,64.40
2021,11,15,10,40,62.70
2021,11,15,10,41,70.80
2021,11,15,10,42,61.20
2021,11,15,10,43,62.70
2021,11,15,10,44,66.00
2021,11,15,10,45,66.00
2021,11,15,10,46,67.60
2021,11,15,10,47,61.20
2021,11,15,10,48,66.00
2021,11,15,10,49,64.40
2021,11,15,10,50,69.20
2021,11,15,10,51,69.20
2021,11,15,10,52,67.60
2021,11,15,10,53,70.80
2021,11,15,10,54,66.00
2021,11,15,10,55,67.60
2021,11,15,10,56,70.80
2021,11,15,10,57,67.60
2021,11,15,10,58,75.60
2021,11,15,10,59,70.80
2021,11,15,11,00,64.40
2021,11,15,11,01,59.50
2021,11,15,11,02,66.00
2021,11,15,11,03,64.40
2021,11,15,11,04,72.40
2021,11,15,11,05,64.40
2021,11,15,11,06,72.40
2021,11,15,11,07,75.60
2021,11,15,11,08,83.70
2021,11,15,11,09,66.00
2021,11,15,11,10,61.20
2021,11,15,11,11,67.60
2021,11,15,11,12,67.60
2021,11,15,11,13,66.00
2021,11,15,11,14,61.20
2021,11,15,11,15,66.00
2021,11,15,11,16,62.70
2021,11,15,11,17,67.60
2021,11,15,11,18,70.80
2021,11,15,11,19,62.70
2021,11,15,11,20,67.60
2021,11,15,11,21,70.80
2021,11,15,11,22,66.00
2021,11,15,11,23,66.00
2021,11,15,11,24,64.40
2021,11,15,11,25,72.40
2021,11,15,11,26,72.40
2021,11,15,11,27,64.40
2021,11,15,11,28,67.60
2021,11,15,11,29,66.00
2021,11,15,11,30,56.30
2021,11,15,11,31,35.40
2021,11,15,11,32,59.50
2021,11,15,11,33,64.40
2021,11,15,11,34,72.40
2021,11,15,11,35,61.20
2021,11,15,11,36,56.30
2021,11,15,11,37,66.00
2021,11,15,11,38,66.00
2021,11,15,11,39,70.80
2021,11,15,11,40,57.90
2021,11,15,11,41,59.50
2021,11,15,11,42,67.60
2021,11,15,11,43,62.70
2021,11,15,11,44,69.20
2021,11,15,11,45,66.00
2021,11,15,11,46,57.90
2021,11,15,11,47,61.20
2021,11,15,11,48,66.00
2021,11,15,11,49,74.00
2021,11,15,11,50,53.10
2021,11,15,11,51,62.70
2021,11,15,11,52,64.40
2021,11,15,11,53,66.00
2021,11,15,11,54,64.40
2021,11,15,11,55,67.60
2021,11,15,11,56,70.80
2021,11,15,11,57,62.70
2021,11,15,11,58,70.80
2021,11,15,11,59,64.40
2021,11,15,12,00,59.50
2021,11,15,12,01,54.70
2021,11,15,12,02,61.20
2021,11,15,12,03,53.10
2021,11,15,12,04,57.90
2021,11,15,12,05,57.90
2021,11,15,12,06,59.50
2021,11,15,12,07,61.20
2021,11,15,12,08,61.20
2021,11,15,12,09,61.20
2021,11,15,12,10,77.30
2021,11,15,12,11,62.70
2021,11,15,12,12,57.90
2021,11,15,12,13,51.50
2021,11,15,12,14,62.70
2021,11,15,12,15,67.60
2021,11,15,12,16,51.50
2021,11,15,12,17,54.70
2021,11,15,12,18,59.50
2021,11,15,12,19,62.70
2021,11,15,12,20,64.40
2021,11,15,12,21,59.50
2021,11,15,12,22,61.20
2021,11,15,12,23,61.20
2021,11,15,12,24,57.90
2021,11,15,12,25,64.40
2021,11,15,12,26,72.40
2021,11,15,12,27,66.00
2021,11,15,12,28,56.30
2021,11,15,12,29,54.70
2021,11,15,12,30,51.50
2021,11,15,12,31,54.70
2021,11,15,12,32,48.30
2021,11,15,12,33,53.10
2021,11,15,12,34,61.20
2021,11,15,12,35,57.90
2021,11,15,12,36,61.20
2021,11,15,12,37,53.10
2021,11,15,12,38,53.10
2021,11,15,12,39,53.10
2021,11,15,12,40,51.50
2021,11,15,12,41,48.30
2021,11,15,12,42,57.90
2021,11,15,12,43,57.90
2021,11,15,12,44,61.20
2021,11,15,12,45,57.90
2021,11,15,12,46,54.70
2021,11,15,12,47,59.50
2021,11,15,12,48,54.70
2021,11,15,12,49,61.20
2021,11,15,12,50,62.70
2021,11,15,12,51,62.70
2021,11,15,12,52,56.30
2021,11,15,12,53,59.50
2021,11,15,12,54,62.70
2021,11,15,12,55,62.70
2021,11,15,12,56,59.50
2021,11,15,12,57,64.40
2021,11,15,12,58,69.20
2021,11,15,12,59,61.20
2021,11,15,13,00,64.40
2021,11,15,13,01,64.40
2021,11,15,13,02,72.40
2021,11,15,13,03,74.00
2021,11,15,13,04,77.30
2021,11,15,13,05,56.30
2021,11,15,13,06,62.70
2021,11,15,13,07,62.70
2021,11,15,13,08,64.40
2021,11,15,13,09,64.40
2021,11,15,13,10,67.60
2021,11,15,13,11,66.00
2021,11,15,13,12,77.30
2021,11,15,13,13,78.80
2021,11,15,13,14,67.60
2021,11,15,13,15,67.60
2021,11,15,13,16,70.80
2021,11,15,13,17,75.60
2021,11,15,13,18,72.40
2021,11,15,13,19,64.40
2021,11,15,13,20,75.60
2021,11,15,13,21,75.60
2021,11,15,13,22,67.60
2021,11,15,13,23,69.20
2021,11,15,13,24,69.20
2021,11,15,13,25,66.00
2021,11,15,13,26,64.40
2021,11,15,13,27,70.80
2021,11,15,13,28,56.30
2021,11,15,13,29,61.20
2021,11,15,13,30,64.40
2021,11,15,13,31,70.80
2021,11,15,13,32,78.80
2021,11,15,13,33,80.50
2021,11,15,13,34,69.20
2021,11,15,13,35,70.80
2021,11,15,13,36,75.60
2021,11,15,13,37,80.50
2021,11,15,13,38,77.30
2021,11,15,13,39,86.90
2021,11,15,13,40,88.50
2021,11,15,13,41,82.10
2021,11,15,13,42,77.30
2021,11,15,13,43,78.80
2021,11,15,13,44,83.70
2021,11,15,13,45,80.50
2021,11,15,13,46,78.80
2021,11,15,13,47,72.40
2021,11,15,13,48,75.60
2021,11,15,13,49,80.50
2021,11,15,13,50,74.00
2021,11,15,13,51,61.20
2021,11,15,13,52,72.40
2021,11,15,13,53,67.60
2021,11,15,13,54,82.10
2021,11,15,13,55,72.40
2021,11,15,13,56,72.40
2021,11,15,13,57,90.10
2021,11,15,13,58,86.90
2021,11,15,13,59,93.30
2021,11,15,14,00,90.10
2021,11,15,14,01,91.70
2021,11,15,14,02,83.70
2021,11,15,14,03,75.60
2021,11,15,14,04,69.20
2021,11,15,14,05,82.10
2021,11,15,14,06,80.50
2021,11,15,14,07,86.90
2021,11,15,14,08,77.30
2021,11,15,14,09,70.80
2021,11,15,14,10,80.50
2021,11,15,14,11,77.30
2021,11,15,14,12,78.80
2021,11,15,14,13,74.00
2021,11,15,14,14,75.60
2021,11,15,14,15,78.80
2021,11,15,14,16,78.80
2021,11,15,14,17,70.80
2021,11,15,14,18,83.70
2021,11,15,14,19,72.40
2021,11,15,14,20,72.40
2021,11,15,14,21,67.60
2021,11,15,14,22,75.60
2021,11,15,14,23,75.60
2021,11,15,14,24,74.00
2021,11,15,14,25,74.00
2021,11,15,14,26,80.50
2021,11,15,14,27,75.60
2021,11,15,14,28,69.20
2021,11,15,14,29,69.20
2021,11,15,14,30,69.20
2021,11,15,14,31,62.70
2021,11,15,14,32,77.30
2021,11,15,14,33,77.30
2021,11,15,14,34,61.20
2021,11,15,14,35,78.80
2021,11,15,14,36,70.80
2021,11,15,14,37,82.10
2021,11,15,14,38,72.40
2021,11,15,14,39,90.10
2021,11,15,14,40,82.10
2021,11,15,14,41,78.80
2021,11,15,14,42,70.80
2021,11,15,14,43,70.80
2021,11,15,14,44,85.30
2021,11,15,14,45,74.00
2021,11,15,14,46,74.00
2021,11,15,14,47,61.20
2021,11,15,14,48,62.70
2021,11,15,14,49,59.50
2021,11,15,14,50,57.90
2021,11,15,14,51,66.00
2021,11,15,14,52,70.80
2021,11,15,14,53,59.50
2021,11,15,14,54,64.40
2021,11,15,14,55,61.20
2021,11,15,14,56,56.30
2021,11,15,14,57,56.30
2021,11,15,14,58,56.30
2021,11,15,14,59,54.70
2021,11,15,15,00,61.20
2021,11,15,15,01,54.70
2021,11,15,15,02,61.20
2021,11,15,15,03,56.30
2021,11,15,15,04,54.70
2021,11,15,15,05,59.50
2021,11,15,15,06,78.80
2021,11,15,15,07,77.30
2021,11,15,15,08,59.50
2021,11,15,15,09,62.70
2021,11,15,15,10,61.20
2021,11,15,15,11,66.00
2021,11,15,15,12,59.50
2021,11,15,15,13,62.70
2021,11,15,15,14,69.20
2021,11,15,15,15,57.90
2021,11,15,15,16,57.90
2021,11,15,15,17,57.90
2021,11,15,15,18,62.70
2021,11,15,15,19,62.70
2021,11,15,15,20,56.30
2021,11,15,15,21,54.70
2021,11,15,15,22,59.50
2021,11,15,15,23,67.60
2021,11,15,15,24,64.40
2021,11,15,15,25,64.40
2021,11,15,15,26,62.70
2021,11,15,15,27,80.50
2021,11,15,15,28,72.40
2021,11,15,15,29,72.40
2021,11,15,15,30,67.60
2021,11,15,15,31,72.40
2021,11,15,15,32,67.60
2021,11,15,15,33,53.10
2021,11,15,15,34,61.20
2021,11,15,15,35,67.60
2021,11,15,15,36,59.50
2021,11,15,15,37,62.70
2021,11,15,15,38,66.00
2021,11,15,15,39,64.40
2021,11,15,15,40,66.00
2021,11,15,15,41,54.70
2021,11,15,15,42,53.10
2021,11,15,15,43,66.00
2021,11,15,15,44,64.40
2021,11,15,15,45,57.90
2021,11,15,15,46,53.10
2021,11,15,15,47,57.90
2021,11,15,15,48,57.90
2021,11,15,15,49,61.20
2021,11,15,15,50,56.30
2021,11,15,15,51,57.90
2021,11,15,15,52,74.00
2021,11,15,15,53,62.70
2021,11,15,15,54,70.80
2021,11,15,15,55,62.70
2021,11,15,15,56,53.10
2021,11,15,15,57,61.20
2021,11,15,15,58,61.20
2021,11,15,15,59,57.90
2021,11,15,16,00,59.50
2021,11,15,16,01,54.70
2021,11,15,16,02,57.90
2021,11,15,16,03,61.20
2021,11,15,16,04,61.20
2021,11,15,16,05,56.30
2021,11,15,16,06,67.60
2021,11,15,16,07,69.20
2021,11,15,16,08,53.10
2021,11,15,16,09,59.50
2021,11,15,16,10,77.30
2021,11,15,16,11,57.90
2021,11,15,16,12,53.10
2021,11,15,16,13,57.90
2021,11,15,16,14,49.90
2021,11,15,16,15,57.90
2021,11,15,16,16,64.40
2021,11,15,16,17,59.50
2021,11,15,16,18,59.50
2021,11,15,16,19,62.70
2021,11,15,16,20,70.80
2021,11,15,16,21,66.00
2021,11,15,16,22,67.60
2021,11,15,16,23,69.20
2021,11,15,16,24,54.70
2021,11,15,16,25,61.20
2021,11,15,16,26,64.40
2021,11,15,16,27,62.70
2021,11,15,16,28,64.40
2021,11,15,16,29,69.20
2021,11,15,16,30,59.50
2021,11,15,16,31,57.90
2021,11,15,16,32,64.40
2021,11,15,16,33,59.50
2021,11,15,16,34,64.40
2021,11,15,16,35,57.90
2021,11,15,16,36,56.30
2021,11,15,16,37,66.00
2021,11,15,16,38,61.20
2021,11,15,16,39,61.20
2021,11,15,16,40,51.50
2021,11,15,16,41,54.70
2021,11,15,16,42,59.50
2021,11,15,16,43,49.90
2021,11,15,16,44,59.50
2021,11,15,16,45,53.10
2021,11,15,16,46,57.90
2021,11,15,16,47,56.30
2021,11,15,16,48,56.30
2021,11,15,16,49,59.50
2021,11,15,16,50,66.00
2021,11,15,16,51,57.90
2021,11,15,16,52,67.60
2021,11,15,16,53,75.60
2021,11,15,16,54,69.20
2021,11,15,16,55,69.20
2021,11,15,16,56,72.40
2021,11,15,16,57,56.30
2021,11,15,16,58,61.20
2021,11,15,16,59,64.40
2021,11,15,17,00,74.00
2021,11,15,17,01,74.00
2021,11,15,17,02,72.40
2021,11,15,17,03,62.70
2021,11,15,17,04,66.00
2021,11,15,17,05,59.50
2021,11,15,17,06,54.70
2021,11,15,17,07,49.90
2021,11,15,17,08,56.30
2021,11,15,17,09,54.70
2021,11,15,17,10,53.10
2021,11,15,17,11,62.70
2021,11,15,17,12,49.90
2021,11,15,17,13,61.20
2021,11,15,17,14,54.70
2021,11,15,17,15,54.70
2021,11,15,17,16,54.70
2021,11,15,17,17,51.50
2021,11,15,17,18,67.60
2021,11,15,17,19,59.50
2021,11,15,17,20,59.50
2021,11,15,17,21,64.40
2021,11,15,17,22,62.70
2021,11,15,17,23,66.00
2021,11,15,17,24,59.50
2021,11,15,17,25,72.40
2021,11,15,17,26,57.90
2021,11,15,17,27,61.20
2021,11,15,17,28,64.40
2021,11,15,17,29,59.50
2021,11,15,17,30,59.50
2021,11,15,17,31,51.50
2021,11,15,17,32,57.90
2021,11,15,17,33,59.50
2021,11,15,17,34,53.10
2021,11,15,17,35,49.90
2021,11,15,17,36,61.20
2021,11,15,17,37,56.30
2021,11,15,17,38,57.90
2021,11,15,17,39,56.30
2021,11,15,17,40,54.70
2021,11,15,17,41,51.50
2021,11,15,17,42,66.00
2021,11,15,17,43,57.90
2021,11,15,17,44,57.90
2021,11,15,17,45,48.30
2021,11,15,17,46,64.40
2021,11,15,17,47,56.30
2021,11,15,17,48,48.30
2021,11,15,17,49,54.70
2021,11,15,17,50,59.50
2021,11,15,17,51,53.10
2021,11,15,17,52,49.90
2021,11,15,17,53,53.10
2021,11,15,17,54,51.50
2021,11,15,17,55,46.70
2021,11,15,17,56,54.70
2021,11,15,17,57,57.90
2021,11,15,17,58,56.30
2021,11,15,17,59,48.30
2021,11,15,18,00,56.30
2021,11,15,18,01,57.90
2021,11,15,18,02,53.10
2021,11,15,18,03,53.10
2021,11,15,18,04,46.70
2021,11,15,18,05,53.10
2021,11,15,18,06,59.50
2021,11,15,18,07,56.30
2021,11,15,18,08,49.90
2021,11,15,18,09,57.90
2021,11,15,18,10,57.90
2021,11,15,18,11,53.10
2021,11,15,18,12,48.30
2021,11,15,18,13,53.10
2021,11,15,18,14,51.50
2021,11,15,18,15,49.90
2021,11,15,18,16,43.50
2021,11,15,18,17,48.30
2021,11,15,18,18,56.30
2021,11,15,18,19,56.30